Starlink 31688

operational
NORAD ID: 59386 Int'l Des: 2024-062 Owner: SPXS Country: US Constellation: starlink
LEOCIRCULAR

关于 Starlink 31688

正在加载描述...

实时位置

正在加载3D地球...

即将过境

高度历史

Altitude vs Time

uPlot chart will show altitude changes over time

两行轨道根数

1 59386U 24062N 25350.15005231 .00026915 00000-0 91726-3 0 9998
2 59386 53.1619 286.3624 0001446 70.7648 289.3509 15.30210489 96808
Epoch: Dec 16, 2025 • Age: 31 hours

当前状态

高度 479.7 km
速度 7.63 km/s
星下点 -15.50°S, 127.71°W
发射日期 Apr 2, 2024
运行时间 1.7 years
类型 internet

技术详情

分类 Payload
质量 730.00 kg
干质量 700.00 kg
总质量 730.00 kg
长度 0.30 m
直径 4.10 m
跨度 29.00 m
形状 Box + pan
制造商 SPXS
平台类型 Starlink V2M
阶段状态 In Orbit
所有者/国家 SPXS/US

大型星座

Loading constellations...